• In Sweden
  • List of Countries
  • For 7 days
  • Water Temperature
  • Satellite Maps
  • Weather Map
  • Weather Widgets
  • user-avatar
    Login

    Hourly Weather La Paz

    Today, 24 September, Monday

    Time Temperature Precipitation Wind Pressure Humidity
    00:00 +22°C° 0 mm 1 mps 697 mmHg 93%
    01:00 +22°C° 0 mm 1 mps 697 mmHg 94%
    02:00 +22°C° 0 mm 1 mps 697 mmHg 95%
    03:00 +21°C° 0 mm 1 mps 697 mmHg 96%
    04:00 +21°C° 0 mm 1 mps 697 mmHg 96%
    05:00 +21°C° 0 mm 1 mps 697 mmHg 96%
    06:00 +21°C° 0 mm 1 mps 697 mmHg 96%
    07:00 +24°C° 0 mm 1 mps 698 mmHg 84%
    08:00 +26°C° 0 mm 1 mps 698 mmHg 72%
    09:00 +28°C° 0 mm 2 mps 699 mmHg 59%
    10:00 +30°C° 0 mm 2 mps 699 mmHg 51%
    11:00 +31°C° 0 mm 2 mps 698 mmHg 42%
    12:00 +34°C° 0 mm 2 mps 698 mmHg 33%
    13:00 +34°C° 0 mm 2 mps 698 mmHg 33%
    14:00 +34°C° 0 mm 2 mps 697 mmHg 33%
    15:00 +34°C° 0 mm 2 mps 696 mmHg 33%
    16:00 +31°C° 0 mm 2 mps 696 mmHg 41%
    17:00 +28°C° 0 mm 2 mps 696 mmHg 50%
    18:00 +25°C° 0 mm 1 mps 696 mmHg 58%
    19:00 +24°C° 0 mm 1 mps 697 mmHg 65%
    20:00 +23°C° 0 mm 1 mps 697 mmHg 71%
    21:00 +22°C° 0 mm 1 mps 698 mmHg 78%
    22:00 +22°C° 0 mm 1 mps 698 mmHg 82%
    23:00 +21°C° 0 mm 1 mps 698 mmHg 85%

    Tomorrow, 25 September, Tuesday

    Time Temperature Precipitation Wind Pressure Humidity
    00:00 +21°C° 0 mm 1 mps 698 mmHg 89%
    01:00 +21°C° 0 mm 1 mps 697 mmHg 91%
    02:00 +21°C° 0 mm 1 mps 697 mmHg 94%
    03:00 +21°C° 0 mm 1 mps 697 mmHg 96%
    04:00 +21°C° 0 mm 1 mps 697 mmHg 96%
    05:00 +21°C° 0 mm 1 mps 697 mmHg 96%
    06:00 +21°C° 0 mm 1 mps 697 mmHg 96%
    07:00 +23°C° 0 mm 1 mps 698 mmHg 83%
    08:00 +26°C° 0 mm 1 mps 699 mmHg 69%
    09:00 +28°C° 0 mm 2 mps 699 mmHg 56%
    10:00 +30°C° 0 mm 2 mps 699 mmHg 50%
    11:00 +32°C° 0 mm 2 mps 699 mmHg 45%
    12:00 +34°C° 0 mm 2 mps 699 mmHg 39%
    13:00 +32°C° 0 mm 2 mps 698 mmHg 44%
    14:00 +31°C° 0 mm 2 mps 697 mmHg 49%
    15:00 +31°C° 0 mm 2 mps 696 mmHg 54%
    16:00 +29°C° 1 mm 1 mps 697 mmHg 64%
    17:00 +27°C° 1 mm 1 mps 697 mmHg 74%
    18:00 +25°C° 1 mm 1 mps 697 mmHg 84%
    19:00 +24°C° 2 mm 1 mps 697 mmHg 87%
    20:00 +24°C° 2 mm 1 mps 698 mmHg 91%
    21:00 +23°C° 2 mm 1 mps 699 mmHg 94%
    22:00 +23°C° 1 mm 1 mps 699 mmHg 94%
    23:00 +23°C° 1 mm 1 mps 698 mmHg 95%

    Day after tomorrow, 26 September, Wednesday

    Time Temperature Precipitation Wind Pressure Humidity
    00:00 +23°C° 1 mm 1 mps 698 mmHg 96%
    01:00 +23°C° 0.2 mm 1 mps 698 mmHg 96%
    02:00 +22°C° 0.2 mm 1 mps 697 mmHg 96%
    03:00 +22°C° 0.2 mm 1 mps 697 mmHg 97%
    04:00 +22°C° 0.1 mm 1 mps 697 mmHg 97%
    05:00 +22°C° 0.1 mm 1 mps 697 mmHg 97%
    06:00 +22°C° 0.1 mm 1 mps 697 mmHg 96%
    07:00 +23°C° 0.1 mm 1 mps 698 mmHg 92%
    08:00 +25°C° 0.1 mm 1 mps 699 mmHg 87%
    09:00 +26°C° 0.1 mm 1 mps 699 mmHg 82%
    10:00 +28°C° 0.3 mm 2 mps 699 mmHg 75%
    11:00 +29°C° 0.3 mm 2 mps 699 mmHg 68%
    12:00 +30°C° 0.3 mm 2 mps 698 mmHg 61%
    13:00 +30°C° 1.1 mm 2 mps 698 mmHg 65%
    14:00 +29°C° 1.1 mm 1 mps 697 mmHg 69%
    15:00 +29°C° 1.1 mm 1 mps 696 mmHg 73%
    16:00 +27°C° 1.2 mm 1 mps 696 mmHg 78%
    17:00 +26°C° 1.2 mm 1 mps 696 mmHg 84%
    18:00 +24°C° 1.2 mm 1 mps 696 mmHg 90%
    19:00 +24°C° 0.5 mm 1 mps 697 mmHg 91%
    20:00 +23°C° 0.5 mm 1 mps 698 mmHg 93%
    21:00 +23°C° 0.5 mm 1 mps 698 mmHg 95%
    22:00 +23°C° 0.1 mm 1 mps 698 mmHg 95%
    23:00 +23°C° 0.1 mm 1 mps 698 mmHg 95%

    27 September, Thursday

    Time Temperature Precipitation Wind Pressure Humidity
    00:00 +22°C° 0.1 mm 1 mps 697 mmHg 95%
    01:00 +22°C° 0 mm 1 mps 697 mmHg 96%
    02:00 +22°C° 0 mm 1 mps 697 mmHg 96%
    03:00 +22°C° 0 mm 1 mps 696 mmHg 96%
    04:00 +22°C° 0 mm 1 mps 697 mmHg 96%
    05:00 +21°C° 0 mm 1 mps 697 mmHg 96%
    06:00 +21°C° 0 mm 1 mps 697 mmHg 97%
    07:00 +23°C° 0 mm 1 mps 698 mmHg 88%
    08:00 +26°C° 0 mm 2 mps 698 mmHg 79%
    09:00 +28°C° 0 mm 2 mps 699 mmHg 70%
    10:00 +29°C° 0.3 mm 2 mps 699 mmHg 65%
    11:00 +30°C° 0.3 mm 2 mps 698 mmHg 59%
    12:00 +32°C° 0.3 mm 2 mps 698 mmHg 54%
    13:00 +32°C° 0.2 mm 2 mps 697 mmHg 53%
    14:00 +32°C° 0.2 mm 2 mps 697 mmHg 53%
    15:00 +32°C° 0.2 mm 2 mps 696 mmHg 52%
    16:00 +30°C° 0.3 mm 2 mps 696 mmHg 60%
    17:00 +27°C° 0.3 mm 1 mps 696 mmHg 68%
    18:00 +25°C° 0.3 mm 1 mps 697 mmHg 76%
    19:00 +25°C° 0.4 mm 1 mps 697 mmHg 81%
    20:00 +24°C° 0.4 mm 1 mps 698 mmHg 86%
    21:00 +23°C° 0.4 mm 1 mps 698 mmHg 91%
    22:00 +22°C° 0.1 mm 1 mps 698 mmHg 92%
    23:00 +22°C° 0.1 mm 1 mps 698 mmHg 94%

    28 September, Friday

    Time Temperature Precipitation Wind Pressure Humidity
    00:00 +22°C° 0.1 mm 1 mps 698 mmHg 95%
    01:00 +22°C° 0 mm 1 mps 697 mmHg 96%
    02:00 +22°C° 0 mm 1 mps 697 mmHg 96%
    03:00 +22°C° 0 mm 1 mps 697 mmHg 96%
    04:00 +21°C° 0 mm 1 mps 697 mmHg 96%
    05:00 +21°C° 0 mm 1 mps 698 mmHg 96%
    06:00 +21°C° 0 mm 1 mps 698 mmHg 96%
    07:00 +24°C° 0 mm 1 mps 699 mmHg 84%
    08:00 +26°C° 0 mm 2 mps 699 mmHg 73%
    09:00 +28°C° 0 mm 2 mps 700 mmHg 62%
    10:00 +30°C° 0 mm 2 mps 700 mmHg 57%
    11:00 +31°C° 0 mm 2 mps 699 mmHg 51%
    12:00 +34°C° 0 mm 3 mps 699 mmHg 46%
    13:00 +32°C° 0.1 mm 2 mps 698 mmHg 51%
    14:00 +30°C° 0.1 mm 2 mps 697 mmHg 56%
    15:00 +29°C° 0.1 mm 2 mps 696 mmHg 62%
    16:00 +28°C° 1 mm 2 mps 697 mmHg 70%
    17:00 +26°C° 1 mm 1 mps 697 mmHg 78%
    18:00 +25°C° 1 mm 1 mps 697 mmHg 86%
    19:00 +24°C° 1 mm 1 mps 698 mmHg 89%
    20:00 +24°C° 1 mm 1 mps 698 mmHg 92%
    21:00 +23°C° 1 mm 1 mps 699 mmHg 95%
    22:00 +23°C° 0.5 mm 1 mps 699 mmHg 95%
    23:00 +23°C° 0.5 mm 1 mps 698 mmHg 96%

    29 September, Saturday

    Time Temperature Precipitation Wind Pressure Humidity
    00:00 +22°C° 0.5 mm 1 mps 698 mmHg 96%
    01:00 +22°C° 0.2 mm 1 mps 698 mmHg 96%
    02:00 +22°C° 0.2 mm 1 mps 698 mmHg 96%
    03:00 +22°C° 0.2 mm 1 mps 698 mmHg 96%
    04:00 +22°C° 0.1 mm 1 mps 698 mmHg 96%
    05:00 +22°C° 0.1 mm 1 mps 698 mmHg 96%
    06:00 +22°C° 0.1 mm 1 mps 699 mmHg 96%
    07:00 +24°C° 0.1 mm 2 mps 699 mmHg 91%
    08:00 +25°C° 0.1 mm 2 mps 699 mmHg 86%
    09:00 +26°C° 0.1 mm 2 mps 700 mmHg 81%
    10:00 +28°C° 0.2 mm 2 mps 699 mmHg 73%
    11:00 +29°C° 0.2 mm 2 mps 699 mmHg 65%
    12:00 +31°C° 0.2 mm 2 mps 698 mmHg 57%
    13:00 +31°C° 0.4 mm 2 mps 698 mmHg 59%
    14:00 +31°C° 0.4 mm 2 mps 697 mmHg 61%
    15:00 +30°C° 0.4 mm 2 mps 696 mmHg 63%
    16:00 +28°C° 0.8 mm 2 mps 697 mmHg 71%
    17:00 +26°C° 0.8 mm 2 mps 697 mmHg 79%
    18:00 +24°C° 0.8 mm 1 mps 697 mmHg 87%
    19:00 +24°C° 0.7 mm 1 mps 698 mmHg 90%
    20:00 +23°C° 0.7 mm 1 mps 698 mmHg 93%
    21:00 +23°C° 0.7 mm 1 mps 698 mmHg 95%
    22:00 +22°C° 0 mm 1 mps 698 mmHg 96%
    23:00 +22°C° 0 mm 1 mps 698 mmHg 96%
    Show more